LUCH 5B (SDCM/PRN 125)

Last updated on Wed Nov 05 2025 00:03:27 GMT+0000 (Coordinated Universal Time)

1 38977U 12061A 25308.60392456 -.00000124 00000+0 00000+0 0 9993 2 38977 9.9964 52.0572 0007652 176.3561 16.8848 1.00270966 47358
UTC large
Height (km)
Speed (km/s)
/
Latitude / Longitude
Inclination (degrees)
Orbital Period (minutes)
Azimuth
Elevation
Range (km)
Doppler Factor

Next 0 passes for location: London (51.5072 / 0.1276)

Sorry there are no passes over London.